Location: Memphis
(29.8667°N, 31.2500°E)
Time: 08:38:16
(UTC+00:00)

Cosmos 1844 Rocket - Pass Details

Date: 03 March 2021
Orbit: 826 x 843 km, 71.0° (Epoch: 15 April)

Event Time Altitude Azimuth Distance (km) Brightness Sun altitude
Rises 18:28:24 0° 330° (NNW) 3,364 6.4 -33.7°
Reaches altitude 10° 18:30:59 10° 322° (NW) 2,428 5.6 -34.3°
Enters shadow 18:35:43 37° 265° (W) 1,263 3.9 -35.3°
